{"data":{"norad_id":67290,"epoch":"2026-09-19T11:24:25.020576Z","epoch_age_seconds":191575,"freshness":"STALE","line1":"1 67290U 25313AU  26262.47528959  .00006672  00000+0  25897-3 0  9999","line2":"2 67290  97.3858 336.3909 0009480  32.4435 327.7385 15.26386511 40356","mean_motion":15.26386511,"eccentricity":0.000948,"inclination_deg":97.3858,"raan_deg":336.3909,"arg_perigee_deg":32.4435,"mean_anomaly_deg":327.7385,"bstar":0.00025897,"rev_number":4035,"period_min":94.340456340681,"perigee_km":480.11736533212,"apogee_km":493.13295438722,"semimajor_km":6864.7621598597,"source":"CELESTRAK","updated_at":"2026-09-21T09:00:16.549910Z"}}